[[{"header":{"parameterUnit":"m.s-1","parameterCategory":1,"la1":30.2991,"la2":30.254,"lo1":-89.0895,"lo2":-89.0444,"dy":0.0017,"dx":0.0017,"nx":28,"ny":28,"refTime":"2023-10-12T21:00:00:Z","depth":0,"parameterNumber":2,"parameterNumberName":"U-component_of_WINDS"},"data":[0,0,0,0,0,0,0,0,0,0,0,0,0,0,0,0,0,0,0,0,0,0,0,0,0,0,0,0,0,0,0,0,0,0,0,0,0,0,0,0,0,0,0,0,0,0,0,0,0,0,0,0,0,0,0,0,0,0,-1.9118,-1.9118,0,-1.9126,-1.9126,-1.9126,-1.9098,-1.9098,-1.9097,-1.9096,-1.9104,-1.9105,-1.9106,0,0,0,0,0,0,0,0,0,0,0,0,0,-1.908,-1.9081,-1.9118,-1.9118,-1.9118,-1.9126,-1.9126,-1.9126,-1.9099,-1.9098,-1.9097,-1.9096,-1.9104,-1.9105,-1.9106,0,0,0,0,0,0,0,0,0,0,0,0,0,-1.9093,-1.9081,-1.9118,-1.9106,-1.9104,-1.9126,-1.9126,-1.9126,-1.9099,-1.9098,-1.9096,-1.9095,-1.9104,-1.9105,-1.9106,-1.914,0,0,-1.9111,-1.9112,0,0,0,0,0,0,0,0,-1.9092,-1.9094,-1.9107,-1.9106,-1.9105,-1.911,-1.9115,-1.9131,-1.9099,-1.9101,-1.9096,-1.9095,-1.9107,-1.9108,-1.9112,-1.9141,-1.9141,-1.9111,-1.9112,-1.9113,-1.9113,0,0,0,0,0,0,0,-1.9091,-1.9094,-1.9121,-1.9107,-1.9106,-1.91,-1.91,-1.9118,-1.9111,-1.9101,-1.9099,-1.91,-1.9106,-1.9111,-1.9112,-1.9141,-1.9111,-1.9112,-1.9113,-1.9114,-1.9197,-1.9198,0,0,0,0,0,0,-1.9092,-1.9093,-1.9121,-1.9121,-1.9096,-1.9101,-1.9102,-1.911,-1.9111,-1.911,-1.9101,-1.9099,-1.9109,-1.9111,-1.9113,-1.9152,-1.9113,-1.9114,-1.9115,-1.9195,-1.9197,-1.9198,0,0,0,0,0,0,-1.9091,-1.9095,-1.912,-1.9107,-1.911,-1.9103,-1.9112,-1.911,-1.9115,-1.9111,-1.9109,-1.9107,-1.9108,-1.9111,-1.9133,-1.9152,-1.9115,-1.9116,-1.9194,-1.9196,-1.9198,-1.9231,0,0,0,0,0,0,-1.909,-1.9095,-1.9108,-1.9107,-1.911,-1.9141,-1.9113,-1.9111,-1.9118,-1.9115,-1.9116,-1.9115,-1.9107,-1.9131,-1.9135,-1.9153,-1.9117,-1.9192,-1.9195,-1.9197,-1.9229,-1.9234,-1.9239,0,0,0,0,0,-1.9089,-1.9117,-1.9108,-1.9112,-1.9126,-1.9142,-1.9144,-1.9135,-1.9119,-1.9132,-1.9129,-1.9115,-1.9149,-1.9134,-1.9138,-1.9157,-1.9191,-1.9194,-1.9197,-1.9226,-1.9233,-1.9239,0,0,0,0,0,0,-1.912,-1.9117,-1.9107,-1.9136,-1.914,-1.9138,-1.9154,-1.9142,-1.9151,-1.9148,-1.9135,-1.9136,-1.9161,-1.9161,-1.9144,-1.9189,-1.9167,-1.9171,-1.9188,-1.9195,-1.92,-1.92,-1.9118,0,0,0,0,0,-1.913,-1.9144,-1.914,-1.9165,-1.9168,-1.916,-1.9167,-1.9159,-1.9163,-1.9164,-1.9163,-1.9167,-1.9179,-1.9187,-1.9197,-1.9228,-1.9228,-1.9243,-1.9248,-1.9253,-1.9256,-1.9272,-1.9279,-1.9208,-1.9208,-1.9208,0,0,-1.9151,-1.9151,-1.916,-1.9172,-1.9174,-1.9188,-1.9162,-1.9178,-1.9189,-1.9167,-1.9188,-1.9188,-1.9191,-1.9218,-1.923,-1.9219,-1.9276,-1.9256,-1.926,-1.9261,-1.9276,-1.9283,-1.9289,-1.921,-1.921,-1.921,0,0,-1.9197,-1.9198,-1.9219,-1.9222,-1.9225,-1.922,-1.9225,-1.9225,-1.9223,-1.9245,-1.9228,-1.924,-1.9261,-1.9264,-1.9268,-1.9314,-1.9302,-1.9318,-1.9345,-1.9361,-1.9367,-1.9372,-1.9388,-1.9394,-1.9321,-1.9321,-1.9321,0,-1.9223,-1.9244,-1.9232,-1.9249,-1.9254,-1.9235,-1.9256,-1.9259,-1.9266,-1.927,-1.9257,-1.9282,-1.9283,-1.931,-1.9321,-1.9325,-1.9331,-1.9318,-1.9367,-1.9372,-1.9376,-1.9392,-1.9398,-1.9323,-1.9323,-1.9323,-1.9323,0,-1.9275,-1.929,-1.9307,-1.9313,-1.932,-1.9339,-1.933,-1.9339,-1.933,-1.9326,-1.9348,-1.9348,-1.9358,-1.9364,-1.9356,-1.939,-1.9383,-1.9369,-1.9347,-1.9385,-1.94,-1.9406,-1.9326,-1.9325,-1.9325,-1.9324,0,0,-1.9342,-1.9341,-1.9347,-1.935,-1.9351,-1.9362,-1.938,-1.939,-1.9397,-1.9402,-1.9417,-1.9434,-1.9421,-1.9426,-1.9417,-1.9431,-1.9468,-1.9415,-1.9415,-1.9425,-1.9506,-1.9517,-1.9524,-1.9459,-1.946,-1.9461,-1.9505,0,-1.9387,-1.9418,-1.9407,-1.9439,-1.9452,-1.9433,-1.9448,-1.9451,-1.9448,-1.9458,-1.9454,-1.9467,-1.9448,-1.9451,-1.9464,-1.9461,-1.9484,-1.9457,-1.9473,-1.9474,-1.9473,-1.9531,-1.9543,-1.9585,-1.9511,-1.9512,-1.9513,0,-1.9444,-1.9451,-1.9484,-1.9482,-1.9487,-1.9502,-1.9509,-1.9519,-1.9522,-1.9518,-1.9523,-1.9512,-1.9529,-1.9507,-1.9531,-1.9513,-1.9518,-1.9518,-1.9519,-1.9521,-1.9496,-1.9535,-1.9598,-1.9605,-1.9521,-1.9521,-1.952,0,-1.949,-1.9507,-1.9529,-1.9531,-1.953,-1.9541,-1.9541,-1.9542,-1.9548,-1.9555,-1.9558,-1.9567,-1.9572,-1.9579,-1.957,-1.9554,-1.9595,-1.9572,-1.9593,-1.9593,-1.9603,-1.9602,-1.9668,-1.9606,-1.9606,-1.9605,-1.9605,0,-1.9542,-1.9563,-1.9549,-1.9563,-1.9585,-1.9572,-1.9595,-1.9593,-1.9594,-1.9607,-1.959,-1.9603,-1.959,-1.9601,-1.9594,-1.9615,-1.9617,-1.9615,-1.9613,-1.9616,-1.9617,-1.962,-1.9617,-1.9607,-1.9607,-1.9606,-1.9606,0,-1.9597,-1.9589,-1.9611,-1.9608,-1.9608,-1.9624,-1.9622,-1.9634,-1.9629,-1.9645,-1.9648,-1.964,-1.9652,-1.9644,-1.9656,-1.9651,-1.9679,-1.9672,-1.9678,-1.9676,-1.9698,-1.9696,-1.9769,-1.9778,-1.9709,-1.971,-1.971,0,-1.9631,-1.9647,-1.9645,-1.9652,-1.9653,-1.9665,-1.9671,-1.9658,-1.9665,-1.9669,-1.968,-1.9691,-1.9699,-1.9719,-1.9714,-1.9723,-1.9717,-1.9742,-1.9719,-1.9722,-1.9718,-1.9717,-1.9719,-1.9747,-1.9748,-1.9749,-1.9749,0,-1.9693,-1.9687,-1.9696,-1.9704,-1.9711,-1.9717,-1.9721,-1.9728,-1.9715,-1.9724,-1.9735,-1.9741,-1.9753,-1.9764,-1.9771,-1.9771,-1.9758,-1.9756,-1.9762,-1.9766,-1.9769,-1.9768,-1.9691,-1.9755,-1.9755,-1.9754,-1.9754,-1.9754,-1.9738,-1.9751,-1.9752,-1.9762,-1.9764,-1.9768,-1.9779,-1.9775,-1.9784,-1.9793,-1.9785,-1.9799,-1.9801,-1.9809,-1.981,-1.9821,-1.9811,-1.9819,-1.9821,-1.9823,-1.9826,-1.9767,-1.9822,-1.9822,-1.9822,-1.9822,-1.9822,0,-1.9799,-1.9798,-1.9808,-1.9814,-1.9822,-1.9808,-1.9812,-1.982,-1.9832,-1.9834,-1.9842,-1.9856,-1.9865,-1.9861,-1.987,-1.988,-1.9874,-1.9882,-1.9882,-1.9882,-1.9835,-1.9829,-1.9887,-1.9887,-1.9887,-1.9887,-1.9887,-1.9887,-1.9832,-1.9852,-1.9847,-1.9868,-1.9867,-1.9881,-1.9884,-1.9887,-1.9889,-1.9904,-1.9912,-1.9909,-1.9909,-1.9917,-1.9926,-1.9924,-1.9929,-1.9939,-1.9936,-1.9892,-1.9886,-1.9879,-1.9874,-1.994,-1.994,-1.9982,-1.9983,-1.9983]},{"header":{"parameterUnit":"m.s-1","parameterCategory":1,"la1":30.2991,"la2":30.254,"lo1":-89.0895,"lo2":-89.0444,"dy":0.0017,"dx":0.0017,"nx":28,"ny":28,"refTime":"2023-10-12T21:00:00:Z","depth":0,"parameterNumber":3,"parameterNumberName":"V-component_of_WINDS"},"data":[0,0,0,0,0,0,0,0,0,0,0,0,0,0,0,0,0,0,0,0,0,0,0,0,0,0,0,0,0,0,0,0,0,0,0,0,0,0,0,0,0,0,0,0,0,0,0,0,0,0,0,0,0,0,0,0,0,0,-5.7895,-5.7895,0,-5.7942,-5.7943,-5.7943,-5.7887,-5.7885,-5.7882,-5.788,-5.7925,-5.7928,-5.7931,0,0,0,0,0,0,0,0,0,0,0,0,0,-5.7751,-5.7754,-5.7895,-5.7895,-5.7896,-5.7942,-5.7943,-5.7943,-5.7887,-5.7884,-5.7882,-5.788,-5.7924,-5.7927,-5.7931,0,0,0,0,0,0,0,0,0,0,0,0,0,-5.7807,-5.7755,-5.7895,-5.7873,-5.7872,-5.7942,-5.7943,-5.7943,-5.7888,-5.7884,-5.7881,-5.7878,-5.7922,-5.7927,-5.7932,-5.8023,0,0,-5.7946,-5.7948,0,0,0,0,0,0,0,0,-5.7804,-5.7813,-5.7876,-5.7875,-5.7874,-5.7905,-5.7908,-5.797,-5.7888,-5.7882,-5.788,-5.7877,-5.7921,-5.7925,-5.7941,-5.8025,-5.8027,-5.7946,-5.7949,-5.7951,-5.7953,0,0,0,0,0,0,0,-5.78,-5.781,-5.7913,-5.7877,-5.7876,-5.786,-5.7865,-5.792,-5.7918,-5.7882,-5.7878,-5.7885,-5.7919,-5.7936,-5.7941,-5.8028,-5.7946,-5.795,-5.7953,-5.7955,-5.819,-5.8194,0,0,0,0,0,0,-5.78,-5.7807,-5.7912,-5.7915,-5.7831,-5.7865,-5.787,-5.7898,-5.7917,-5.7917,-5.7887,-5.7882,-5.793,-5.7936,-5.7943,-5.8052,-5.7951,-5.7956,-5.7958,-5.8187,-5.8191,-5.8195,0,0,0,0,0,0,-5.7797,-5.7809,-5.791,-5.786,-5.7872,-5.7871,-5.7903,-5.7901,-5.7918,-5.7921,-5.792,-5.7905,-5.7928,-5.7936,-5.8004,-5.8053,-5.7958,-5.7962,-5.8183,-5.8188,-5.8193,-5.8271,0,0,0,0,0,0,-5.7793,-5.7809,-5.7845,-5.7861,-5.7875,-5.7972,-5.7906,-5.7904,-5.7927,-5.792,-5.7938,-5.7938,-5.7926,-5.7997,-5.8009,-5.8057,-5.7966,-5.8178,-5.8185,-5.8191,-5.8264,-5.8278,-5.829,0,0,0,0,0,-5.7788,-5.7863,-5.7847,-5.786,-5.792,-5.7975,-5.7982,-5.7968,-5.7931,-5.7966,-5.7968,-5.7937,-5.8045,-5.8005,-5.8017,-5.8068,-5.8175,-5.8183,-5.8191,-5.8258,-5.8275,-5.829,0,0,0,0,0,0,-5.785,-5.7865,-5.7847,-5.793,-5.7952,-5.7965,-5.8009,-5.7987,-5.8018,-5.801,-5.799,-5.7995,-5.8067,-5.8074,-5.8029,-5.8158,-5.8104,-5.8115,-5.8151,-5.8167,-5.818,-5.8177,-5.7969,0,0,0,0,0,-5.7874,-5.792,-5.7929,-5.8002,-5.8014,-5.801,-5.8033,-5.8021,-5.8042,-5.805,-5.8057,-5.8078,-5.8116,-5.8142,-5.8177,-5.8264,-5.8267,-5.8305,-5.8318,-5.8329,-5.8339,-5.8386,-5.8403,-5.822,-5.822,-5.822,0,0,-5.7923,-5.7937,-5.7966,-5.8015,-5.803,-5.8076,-5.8018,-5.8069,-5.8103,-5.8057,-5.8123,-5.8129,-5.815,-5.8228,-5.8263,-5.8236,-5.839,-5.8339,-5.8347,-5.8351,-5.8395,-5.8413,-5.8428,-5.8225,-5.8224,-5.8224,0,0,-5.8037,-5.8052,-5.8114,-5.8131,-5.8156,-5.8153,-5.8168,-5.8185,-5.8188,-5.8254,-5.8221,-5.826,-5.8326,-5.8343,-5.8361,-5.8481,-5.8454,-5.8493,-5.8561,-5.8608,-5.8622,-5.8635,-5.8678,-5.8694,-5.8502,-5.8502,-5.8503,0,-5.8094,-5.8164,-5.8149,-5.8203,-5.8225,-5.8188,-5.8251,-5.8267,-5.8302,-5.8317,-5.8287,-5.8371,-5.8382,-5.8464,-5.8494,-5.8509,-5.8525,-5.8491,-5.8621,-5.8634,-5.8645,-5.8687,-5.8703,-5.8507,-5.8507,-5.8506,-5.8506,0,-5.8234,-5.8283,-5.833,-5.8367,-5.8394,-5.8452,-5.8445,-5.8474,-5.8459,-5.8459,-5.8526,-5.8539,-5.8577,-5.8595,-5.858,-5.8675,-5.8658,-5.8625,-5.857,-5.8668,-5.8706,-5.8722,-5.8514,-5.8512,-5.8511,-5.851,0,0,-5.8388,-5.8416,-5.8434,-5.845,-5.8475,-5.8512,-5.8568,-5.8607,-5.8632,-5.8657,-5.8703,-5.8761,-5.8731,-5.8751,-5.8737,-5.8778,-5.8873,-5.874,-5.874,-5.8765,-5.8979,-5.9005,-5.9024,-5.8855,-5.8858,-5.886,-5.8978,0,-5.8502,-5.8602,-5.859,-5.8685,-5.8729,-5.8695,-5.8744,-5.8764,-5.8765,-5.8802,-5.8803,-5.8845,-5.8801,-5.8813,-5.8852,-5.8854,-5.8916,-5.8845,-5.8898,-5.89,-5.8895,-5.9044,-5.907,-5.9181,-5.8993,-5.8995,-5.8997,0,-5.8649,-5.8682,-5.8782,-5.88,-5.8819,-5.8863,-5.8898,-5.8934,-5.8956,-5.8954,-5.8977,-5.8956,-5.9011,-5.8956,-5.9031,-5.8983,-5.9004,-5.9008,-5.9012,-5.9017,-5.8955,-5.9053,-5.9215,-5.9233,-5.9021,-5.9019,-5.9017,0,-5.8753,-5.8821,-5.889,-5.8905,-5.8928,-5.896,-5.8971,-5.899,-5.9014,-5.9044,-5.9059,-5.9095,-5.9114,-5.9141,-5.9131,-5.9091,-5.9209,-5.9152,-5.9208,-5.9209,-5.9235,-5.9234,-5.9404,-5.9247,-5.9247,-5.9247,-5.9246,0,-5.8882,-5.8945,-5.8937,-5.898,-5.9048,-5.9034,-5.9102,-5.9108,-5.9125,-5.9167,-5.9138,-5.9178,-5.9161,-5.9199,-5.9191,-5.9255,-5.9264,-5.9263,-5.9261,-5.9267,-5.9267,-5.928,-5.9273,-5.9251,-5.925,-5.9249,-5.9248,0,-5.901,-5.9007,-5.908,-5.9097,-5.9103,-5.9153,-5.9166,-5.9206,-5.9205,-5.9259,-5.927,-5.9269,-5.9313,-5.9305,-5.9352,-5.9347,-5.9428,-5.9415,-5.9421,-5.9418,-5.9476,-5.9471,-5.9661,-5.9686,-5.9512,-5.9514,-5.9515,0,-5.9093,-5.9141,-5.9164,-5.9191,-5.9205,-5.9249,-5.9274,-5.9261,-5.9288,-5.9317,-5.9352,-5.9394,-5.9427,-5.9498,-5.95,-5.9537,-5.9525,-5.9589,-5.953,-5.9535,-5.9527,-5.9525,-5.953,-5.9601,-5.9603,-5.9605,-5.9606,0,-5.9242,-5.9239,-5.9277,-5.9316,-5.9348,-5.9377,-5.9403,-5.9426,-5.9415,-5.9447,-5.9492,-5.9518,-5.9568,-5.9609,-5.9644,-5.9653,-5.9628,-5.9625,-5.964,-5.9647,-5.9649,-5.965,-5.9454,-5.962,-5.9619,-5.9618,-5.9617,-5.9617,-5.9351,-5.9392,-5.9415,-5.9459,-5.9478,-5.9503,-5.9541,-5.9546,-5.9584,-5.9625,-5.9614,-5.9666,-5.9686,-5.973,-5.9743,-5.9783,-5.9759,-5.978,-5.9786,-5.9792,-5.9799,-5.9643,-5.9789,-5.9788,-5.9788,-5.9787,-5.9787,0,-5.9499,-5.9512,-5.9553,-5.9592,-5.9626,-5.9601,-5.9629,-5.9659,-5.9705,-5.9727,-5.976,-5.9813,-5.9853,-5.9859,-5.9897,-5.9928,-5.9917,-5.9938,-5.9936,-5.9939,-5.9818,-5.9802,-5.9946,-5.9946,-5.9946,-5.9946,-5.9946,-5.9946,-5.958,-5.9649,-5.9648,-5.9726,-5.9738,-5.979,-5.9808,-5.9831,-5.9849,-5.9909,-5.9943,-5.9948,-5.9963,-6.0002,-6.0038,-6.0038,-6.0054,-6.0079,-6.0076,-5.9963,-5.9947,-5.9932,-5.9917,-6.0083,-6.0083,-6.0193,-6.0194,-6.0195]}]]